EW9479 Weather Reports


Display with metric or nautical units.
time (UTC)temp
F
wind
direction
speed
MPH
gust
MPH
rain 1hr
in
rain 24hr
in
rain mn
in
humidity
%
barometer
mb
20260510174537 83 198 3.0 7.0 0.00 0.00 0.00 51 1017.7
20260510173043 81 274 1.0 4.0 0.00 0.00 0.00 52 1017.9
20260510171542 80 76 0.0 5.0 0.00 0.00 0.00 55 1018.0
20260510170043 80 274 1.0 4.0 0.00 0.00 0.00 57 1018.2
20260510164548 81 222 2.0 8.0 0.00 0.00 0.00 56 1018.2
20260510163038 80 284 1.0 6.0 0.00 0.00 0.00 57 1018.3
20260510161537 79 0 2.0 4.0 0.00 0.00 0.00 63 1018.3
20260510160041 78 272 1.0 7.0 0.00 0.00 0.00 66 1018.3
20260510154547 78 258 3.0 6.0 0.00 0.00 0.00 69 1018.2
20260510153038 76 48 2.0 7.0 0.00 0.00 0.00 72 1018.2
20260510151542 76 349 5.0 10.0 0.00 0.00 0.00 71 1018.2
20260510150048 76 293 4.0 8.0 0.00 0.00 0.00 73 1018.1
20260510144600 75 283 3.0 7.0 0.00 0.00 0.00 74 1018.1
20260510143054 75 287 2.0 4.0 0.00 0.00 0.00 76 1017.8
20260510141543 73 324 3.0 7.0 0.00 0.00 0.00 77 1017.9
20260510140042 73 15 3.0 6.0 0.00 0.00 0.00 79 1018.0
20260510134546 72 255 3.0 5.0 0.00 0.00 0.00 81 1017.9
20260510133044 71 283 2.0 4.0 0.00 0.00 0.00 82 1017.8
20260510131548 70 0 0.0 1.0 0.00 0.00 0.00 85 1017.6
20260510130043 66 338 0.0 1.0 0.00 0.00 0.00 90 1017.6
20260510124540 62 131 0.0 1.0 0.00 0.00 0.00 93 1017.5
20260510123038 60 0 0.0 1.0 0.00 0.00 0.00 94 1017.4
20260510121539 58 0 0.0 1.0 0.00 0.00 0.00 94 1017.4
20260510120044 57 130 0.0 1.0 0.00 0.00 0.00 94 1017.1
20260510114545 57 131 0.0 1.0 0.00 0.00 0.00 93 1016.9
20260510113040 57 0 0.0 1.0 0.00 0.00 0.00 94 1016.6
20260510111538 57 205 2.0 3.0 0.00 0.00 0.00 95 1016.4
20260510110038 55 0 0.0 0.0 0.00 0.00 0.00 93 1016.2
20260510104544 55 0 0.0 0.0 0.00 0.00 0.00 93 1016.1
20260510103044 55 0 0.0 1.0 0.00 0.00 0.00 93 1015.8
20260510101553 55 0 0.0 0.0 0.00 0.00 0.00 92 1015.7
20260510100040 55 0 0.0 0.0 0.00 0.00 0.00 92 1015.5
20260510094539 56 0 0.0 0.0 0.00 0.00 0.00 93 1015.4
20260510093047 56 215 0.0 1.0 0.00 0.00 0.00 92 1015.2
20260510091542 55 167 0.0 1.0 0.00 0.00 0.00 92 1015.1
20260510090053 55 0 0.0 0.0 0.00 0.00 0.00 92 1015.1
20260510084543 55 0 0.0 0.0 0.00 0.00 0.00 91 1015.0
20260510083038 56 0 0.0 0.0 0.00 0.00 0.00 91 1014.9
20260510081538 56 0 0.0 0.0 0.00 0.00 0.00 90 1015.0
20260510080045 57 0 0.0 0.0 0.00 0.00 0.00 91 1015.0
20260510074547 57 44 0.0 1.0 0.00 0.00 0.00 91 1015.0
20260510073103 56 0 0.0 0.0 0.00 0.00 0.00 90 1014.9
20260510071543 57 0 0.0 2.0 0.00 0.00 0.00 89 1015.0
20260510070042 58 113 0.0 1.0 0.00 0.00 0.00 88 1014.8
20260510064554 59 200 1.0 3.0 0.00 0.00 0.00 91 1014.6
20260510063038 56 0 0.0 2.0 0.00 0.00 0.00 90 1014.4
20260510061544 55 0 0.0 0.0 0.00 0.00 0.00 87 1014.5
20260510060044 55 224 0.0 2.0 0.00 0.00 0.00 87 1014.5
20260510054544 55 0 0.0 0.0 0.00 0.00 0.00 88 1014.6
20260510053045 56 0 0.0 0.0 0.00 0.00 0.00 87 1014.3
20260510051548 56 0 0.0 2.0 0.00 0.00 0.00 87 1014.5
20260510050039 56 0 0.0 0.0 0.00 0.00 0.00 86 1014.3
20260510044545 57 0 0.0 1.0 0.00 0.00 0.00 86 1014.3
20260510043044 57 0 0.0 0.0 0.00 0.00 0.00 86 1014.3
20260510041542 57 37 0.0 1.0 0.00 0.00 0.00 86 1014.2
20260510040045 58 0 0.0 1.0 0.00 0.00 0.00 84 1014.4
20260510034549 58 0 0.0 1.0 0.00 0.00 0.00 83 1014.4
20260510033040 59 37 1.0 1.0 0.00 0.00 0.00 80 1014.4
20260510031544 59 0 0.0 0.0 0.00 0.00 0.00 80 1014.5
20260510030042 60 0 0.0 1.0 0.00 0.00 0.00 79 1014.5
20260510024542 61 0 0.0 0.0 0.00 0.00 0.00 78 1014.3
20260510023038 61 0 0.0 0.0 0.00 0.00 0.00 78 1014.2
20260510021552 62 0 0.0 0.0 0.00 0.00 0.00 75 1013.9
20260510020044 63 0 0.0 0.0 0.00 0.00 0.00 74 1013.6
20260510014551 64 0 0.0 0.0 0.00 0.00 0.00 70 1013.4
20260510013043 65 0 0.0 0.0 0.00 0.00 0.00 70 1013.0
20260510011541 67 0 0.0 0.0 0.00 0.00 0.00 65 1012.9
20260510010047 69 0 0.0 0.0 0.00 0.00 0.00 63 1012.7
20260510004547 72 0 0.0 0.0 0.00 0.00 0.00 60 1012.5
20260510003104 75 0 0.0 0.0 0.00 0.00 0.00 56 1012.2
20260510001543 78 0 0.0 0.0 0.00 0.00 0.00 53 1012.1
20260510000046 80 0 0.0 1.0 0.00 0.00 0.00 54 1012.0
20260509234541 80 0 0.0 2.0 0.00 0.00 0.00 48 1011.9
20260509233038 80 61 0.0 2.0 0.00 0.00 0.00 41 1011.8
20260509231545 80 60 1.0 4.0 0.00 0.00 0.00 39 1011.8
20260509230038 80 0 1.0 4.0 0.00 0.00 0.00 45 1011.6
20260509224542 81 59 3.0 5.0 0.00 0.00 0.00 42 1011.5
20260509223045 81 57 1.0 3.0 0.00 0.00 0.00 43 1011.5
20260509221543 81 29 1.0 4.0 0.00 0.00 0.00 39 1011.7
20260509220043 81 281 2.0 5.0 0.00 0.00 0.00 40 1011.8
20260509214550 81 292 3.0 5.0 0.00 0.00 0.00 39 1011.7
20260509213045 81 307 2.0 5.0 0.00 0.00 0.00 43 1011.8
20260509211547 81 350 1.0 5.0 0.00 0.00 0.00 43 1011.9
20260509210048 81 219 2.0 6.0 0.00 0.00 0.00 43 1011.9
20260509204542 81 311 2.0 4.0 0.00 0.00 0.00 42 1011.8
20260509203043 81 44 1.0 4.0 0.00 0.00 0.00 43 1012.0
20260509201538 81 47 2.0 5.0 0.00 0.00 0.00 40 1011.9
20260509200049 80 11 2.0 7.0 0.00 0.00 0.00 46 1012.0
20260509194550 81 226 1.0 5.0 0.00 0.00 0.00 47 1012.1
20260509193043 81 313 1.0 3.0 0.00 0.00 0.00 47 1012.2
20260509191544 79 91 1.0 6.0 0.00 0.00 0.00 48 1012.3
20260509190037 80 1 2.0 6.0 0.00 0.00 0.00 50 1012.2
20260509184545 78 298 2.0 5.0 0.00 0.00 0.00 53 1012.4
20260509183058 78 283 3.0 7.0 0.00 0.00 0.00 52 1012.4
20260509181541 79 65 1.0 5.0 0.00 0.00 0.00 54 1012.6
20260509180041 78 20 3.0 6.0 0.00 0.00 0.00 58 1012.6